User: anonymous   Login
Location: Caltech
(34.1382°N, 118.1253°W)
Time: 05:45:35
(UTC-07:00)
Language:

Cosmos 2219 Rocket - Orbit

View from above orbital plane
View from above orbital plane
View from above satellite
View from above satellite

Ground track
Ground track

The orbit data is extracted from the following two-line orbital elements,

1 22220U 92076B   15181.24017193 -.00000256  00000-0 -10442-3 0  9994
2 22220 071.0003 130.4300 0015159 284.5397 173.6673 14.16371510169111
Epoch (UTC): 30 June 2015 05:45:50
Eccentricity: 0.0015159
inclination: 71.0003°
perigee height: 827 km
apogee height: 848 km
right ascension of ascending node: 130.4300°
argument of perigee: 284.5397°
revolutions per day: 14.16371510
mean anomaly at epoch: 173.6673°
orbit number at epoch: 16911

The dashed part of the orbit path shows where the satellite is in the earth's shadow,  

DLR